Miscellaneous Local Product
Issued by NWS North Platte, NE

Home | Current Version | Previous Version | Graphics & Text | Print | Product List | Glossary On
Versions: 1 2 3 4 5 6 7 8 9 10 11 12 13 14 15 16 17 18 19 20 21 22 23 24 25 26 27 28 29 30 31 32 33 34 35 36 37 38 39 40 41 42 43 44 45 46 47 48 49 50
000
AXUS43 KLBF 191910
MISLBF


WESTERN AND NORTH CENTRAL NEBRASKA HOURLY WEATHER ROUNDUP
NATIONAL WEATHER SERVICE NORTH PLATTE NE
200 PM CDT SAT AUG 19 2017

NOTE: "FAIR" INDICATES FEW OR NO CLOUDS BELOW 12,000 FEET WITH NO
SIGNIFICANT WEATHER AND/OR OBSTRUCTIONS TO VISIBILITY.

NOTE: STATIONS NOT REPORTING VARIABLES SUCH AS SKY/WEATHER OR
PRESSURE ARE PROVIDED BY RAWS AND APRS NETWORKS AND ARE NOT UNDER
NATIONAL WEATHER SERVICE QUALITY CONTROL.

...OBSERVATIONS IN AND NEAR THE EASTERN PANHANDLE OF NEBRASKA...

CITY           SKY/WX    TMP DP  RH WIND       PRES   REMARKS
PINE RIDGE     SUNNY     92  49  22 S5        29.88F
GORDON         FAIR      90  47  22 NE5       29.89F
CHADRON        SUNNY     92  43  18 N5        29.88F
ALLIANCE       SUNNY     89  48  24 W12       29.93F
SIDNEY         MOSUNNY   96  47  18 SW14      29.98F HX  92
CRESCENT LAKE    N/A     89  44  20 W9G16       N/A
$$

...OBSERVATIONS IN NORTHERN NEBRASKA AND FAR SOUTHERN SOUTH DAKOTA...

CITY           SKY/WX    TMP DP  RH WIND       PRES   REMARKS
WINNER         FAIR      87  62  43 S18G24    29.83F
VALENTINE      SUNNY     92  61  35 S18G26    29.83F HX  92
THEDFORD       SUNNY     91  64  41 S14       29.89F HX  92
AINSWORTH      SUNNY     87  63  44 S17G26    29.87F
O`NEILL        SUNNY     82  65  55 S16G23    29.90F
ORD            SUNNY     85  65  51 S14G21    29.89F
BROKEN BOW     SUNNY     89  66  46 S16G28    29.90F HX  91
VALENTINE NWR    N/A     86  62  44 S16G23      N/A
HALSEY           N/A     87  62  43 S10G20      N/A
BUTTE            N/A     80  64  58 SE16        N/A
CHAMBERS         N/A     85  67  55 SE5G12      N/A
EWING            N/A     80  69  68 S7G14       N/A
$$

...OBSERVATIONS IN SOUTHWEST NEBRASKA AND FAR NORTHEAST COLORADO...

CITY           SKY/WX    TMP DP  RH WIND       PRES   REMARKS
HOLYOKE        FAIR      91  68  46 S8        29.96S HX  95
IMPERIAL       SUNNY     91  62  37 S17G23    29.93F HX  91
OGALLALA       SUNNY     88  66  47 S13       29.92F HX  90
NORTH PLATTE   SUNNY     89  68  49 S14G25    29.89F HX  93
MCCOOK         SUNNY     93  64  38 S20G25    29.91F HX  94
LEXINGTON      SUNNY     87  70  58 S17       29.92F HX  91
STAPLETON        N/A     90  64  42 SW10G20     N/A  HX  91
GOTHENBURG       N/A     85  63  47 S10         N/A
CALLAWAY         N/A     85  69  59 S20         N/A
$$

...OBSERVATIONS IN CENTRAL LINCOLN COUNTY AREA...

CITY           SKY/WX    TMP DP  RH WIND       PRES   REMARKS
N.P. AIRPORT   SUNNY     89  68  49 S14G25    29.89F HX  93
N.P. DOWNTOWN    N/A     90  70  51 S5G14       N/A  HX  95
N.P. SOUTHEAST   N/A     89  68  49 S9G20       N/A  HX  92
N.P. HILLCREST   N/A     89  68  50 S12G20      N/A  HX  93
$$

...SOME OBSERVATIONS FROM AROUND THE REGION...

CITY           SKY/WX    TMP DP  RH WIND       PRES   REMARKS
DENVER         MOSUNNY   90  33  13 S8        30.07F
LIMON          SUNNY     87  42  20 VRB6      30.09F
ASPEN          CLOUDY    77  32  19 NW10G17   30.31F
LARAMIE        SUNNY     80  22  11 W21G26    30.21S
CASPER         SUNNY     86  30  13 SW14      30.04F
CHEYENNE       SUNNY     86  30  13 W22       30.12F
SCOTTSBLUFF    SUNNY     91  42  18 NW15      29.94F
GRAND ISLAND   SUNNY     84  69  60 SE15      29.93F
OMAHA          SUNNY     86  55  34 CALM      29.94F
SIOUX FALLS    SUNNY     78  63  59 S12G17    29.92F
PIERRE         SUNNY     88  61  40 S15G22    29.77F
RAPID CITY     SUNNY     93  43  17 N10G20    29.86F
BISMARCK       SUNNY     84  62  47 S10       29.75F
KANSAS CITY    SUNNY     88  66  48 CALM      29.97F HX  90
HILL CITY      SUNNY     97  61  30 S16G24    29.93F HX  97
WICHITA        MOSUNNY   96  73  47 S12       29.92F HX 105
DODGE CITY     SUNNY     98  58  26 S16G22    29.98F HX  97
OKLAHOMA CITY  MOSUNNY   94  70  45 W9        29.97F HX 100
DALLAS         MOSUNNY   97  70  41 SW5       29.96F HX 103
AMARILLO       SUNNY     89  61  38 S12       30.10F
$$




USA.gov is the U.S. government's official web portal to all federal, state and local government web resources and services.